Wind_Speed
9 7 7 6 6 7 7 7 8 6 9 14 18 26 29 29 29 30 28 26 29 28 27 26 26 27 27 28 29 29 29 31 34 34 30 31 39 39
8 8 7 8 8 8 7 8 8 10 7 18 23 26 26 29 31 31 30 31 28 25 26 28 28 29 30 30 30 31 31 31 33 35 34 31 34 34
9 8 9 9 8 7 10 8 10 11 14 20 22 24 26 26 25 30 32 29 28 28 30 28 31 33 32 29 28 30 31 32 31 33 34 34 36 36
9 8 9 8 7 9 9 10 11 13 17 21 22 23 24 24 24 24 24 30 31 29 31 32 33 31 28 26 25 29 31 33 33 32 32 33 38 41
8 8 8 8 9 10 10 12 14 16 17 19 22 23 24 24 26 25 26 28 31 30 32 33 28 24 25 32 37 33 33 33 37 40 38 38 34 39
7 7 8 8 9 10 11 12 14 17 17 18 20 22 25 26 26 30 31 29 33 35 30 26 23 31 36 34 34 32 31 32 33 35 34 34 39 35
6 6 6 6 8 9 12 14 16 16 17 18 20 22 26 29 28 30 32 35 33 30 33 29 37 35 33 33 31 27 30 33 34 35 37 36 39 41
5 6 5 7 9 12 13 14 12 14 16 18 19 22 26 28 29 30 32 31 16 27 36 39 32 36 34 30 30 34 37 36 36 36 36 38 37 40
6 7 7 8 11 14 15 14 13 13 13 17 21 23 26 28 30 31 30 31 32 37 36 36 34 33 30 32 35 42 42 37 34 33 31 30 31 36
6 8 9 9 12 15 15 14 14 15 15 18 20 22 24 26 25 27 31 32 32 31 30 28 29 31 33 41 37 33 26 25 23 27 31 34 28 27
5 7 9 10 13 14 14 14 15 16 19 20 20 21 22 22 22 24 24 27 25 30 33 21 27 38 35 34 19 17 21 37 34 35 35 33 28 26
7 8 9 12 14 13 13 12 16 19 21 21 21 22 22 21 21 19 22 24 27 22 16 25 32 28 12 16 17 37 31 35 36 33 31 33 33 31
9 9 10 13 13 12 10 11 15 19 18 19 19 20 21 22 22 22 22 23 27 28 36 32 32 31 23 32 31 33 37 33 35 37 35 33 30 28
10 11 11 13 12 12 9 12 16 15 17 18 18 20 23 25 26 28 27 26 27 31 35 31 28 29 29 28 24 29 34 37 35 37 34 32 30 30
11 13 12 12 13 11 11 12 13 14 16 17 19 21 24 26 27 26 29 29 31 29 25 25 28 29 29 30 31 34 37 35 36 30 24 24 24 22
13 13 13 12 14 14 13 13 13 14 16 18 19 21 23 26 27 27 29 32 33 39 31 22 30 29 30 32 34 35 34 23 33 34 33 34 32 29
11 11 10 12 12 14 15 14 14 16 17 21 21 23 25 26 28 28 28 30 30 31 36 39 35 31 32 32 31 34 33 32 33 32 32 31 32 30
7 10 11 12 14 15 15 17 17 19 20 20 21 22 25 26 28 29 28 29 30 31 32 35 41 39 33 30 25 27 31 34 35 34 33 29 32 30
7 8 10 12 13 13 15 16 17 18 19 19 20 21 23 25 27 28 29 29 31 33 34 34 33 29 17 17 37 28 30 37 37 35 31 30 30 32
7 8 10 11 12 14 15 16 17 19 20 20 21 21 23 25 28 28 30 29 31 34 34 34 32 30 19 21 24 50 40 35 33 33 30 31 34 36
8 9 10 11 13 14 15 16 17 19 20 20 21 22 23 25 28 29 31 32 32 31 30 34 39 43 41 39 22 28 37 35 39 40 33 27 21 22
8 10 11 12 13 14 15 16 18 19 20 20 21 22 24 26 28 30 30 31 32 32 34 40 43 40 36 28 18 31 39 45 43 39 40 44 17 7
8 10 11 13 13 14 15 16 18 19 19 20 21 23 25 28 29 30 30 31 32 34 33 38 42 37 35 32 33 29 38 39 37 37 22 21 41 41
Wind_Direction
70 61 64 46 23 17 11 2 343 325 323 327 335 326 327 328 326 327 325 321 319 318 319 318 316 312 308 305 302 296 291 287 286 286 285 278 250 243
67 63 47 28 29 27 18 346 332 313 298 319 321 320 321 323 323 324 322 322 320 319 317 316 314 310 306 303 300 296 293 291 287 285 284 279 265 246
61 53 46 38 32 22 354 348 339 328 309 311 313 317 316 318 319 319 322 322 319 318 316 313 310 309 307 304 305 299 292 292 289 287 286 281 270 258
58 51 43 34 38 9 0 348 333 325 318 316 319 320 318 319 319 318 318 317 318 318 315 311 310 308 306 307 308 300 296 291 287 286 289 286 272 260
58 56 52 32 18 6 358 345 334 328 323 317 318 322 320 324 324 322 321 317 317 317 317 314 311 309 307 302 304 299 295 291 286 281 281 278 273 260
58 53 57 31 12 2 352 344 337 331 329 324 322 325 324 329 328 326 325 323 321 321 318 315 314 309 306 303 303 301 297 294 290 288 285 278 268 264
60 56 61 30 15 5 350 344 338 334 330 329 326 328 327 331 330 327 320 321 321 319 315 315 312 310 308 306 304 302 299 296 291 288 287 286 274 267
53 50 56 24 8 356 348 342 337 334 330 330 327 326 323 324 324 323 318 320 319 320 317 309 313 306 307 305 302 299 298 295 292 289 290 289 283 268
44 44 34 11 7 354 345 343 340 336 328 325 324 321 320 321 321 319 317 313 309 310 312 303 310 304 307 305 302 298 298 296 292 285 291 303 288 268
34 36 22 9 359 354 347 343 342 336 330 327 319 316 316 318 318 314 311 307 304 307 310 299 310 306 308 303 302 301 305 308 306 304 301 296 295 286
37 30 25 8 352 350 348 344 336 331 327 322 319 318 318 321 323 321 320 319 311 313 312 295 315 313 309 303 306 308 305 306 303 302 302 295 294 289
33 24 11 8 356 351 345 339 336 332 328 327 325 326 328 328 329 326 321 316 312 312 302 320 317 326 312 304 308 305 304 303 302 299 297 291 290 288
21 13 4 0 355 351 343 343 335 328 332 329 323 325 327 328 328 326 321 313 306 296 296 307 305 303 290 301 301 302 298 300 300 297 294 289 285 278
15 6 356 354 353 356 356 337 335 345 338 333 329 331 330 328 327 323 320 314 303 295 301 302 294 297 297 295 298 303 302 298 295 291 290 288 284 279
8 357 353 355 358 357 354 346 352 344 338 338 335 331 328 323 323 324 322 320 313 311 311 305 300 302 297 292 293 298 302 299 293 287 290 289 288 283
0 357 359 0 358 358 353 353 348 341 340 338 331 327 327 329 328 331 327 325 321 317 323 315 313 309 302 294 293 292 292 288 291 290 287 285 282 274
352 0 1 358 354 356 351 343 343 344 344 340 335 332 331 330 328 331 328 325 321 319 318 319 320 314 305 296 291 288 292 289 288 290 291 279 278 273
358 1 356 353 356 347 336 336 341 343 340 337 333 331 329 328 326 327 328 325 320 317 317 316 318 320 318 307 291 294 300 294 290 289 287 278 283 274
4 355 348 350 341 331 331 333 332 333 331 330 329 328 327 325 326 326 326 323 318 317 315 316 317 317 315 308 306 302 298 292 291 286 278 274 272 270
356 346 343 337 330 328 329 327 326 329 330 329 328 327 327 325 325 325 323 320 318 315 313 315 316 316 309 300 300 298 299 282 282 281 280 276 269 266
344 342 335 330 329 326 324 323 322 323 324 325 326 326 326 326 321 320 320 316 315 315 313 311 311 310 303 303 292 294 301 295 285 273 277 269 263 256
333 330 329 327 325 323 322 320 319 323 325 325 325 325 324 323 321 320 319 317 314 313 308 307 313 316 313 307 302 301 305 307 304 293 270 245 233 226
319 324 326 323 322 320 319 317 318 319 321 321 322 322 323 321 321 319 318 316 313 313 314 314 316 316 311 308 305 303 306 310 315 316 294 237 223 234
Height
823 825 824 824 821 819 820 821 824 813 807 803 803 798 793 787 782 780 775 772 767 763 759 756 753 750 747 742 739 735 731 728 724 722 722 719 718 716
824 824 824 822 821 820 821 823 821 819 813 806 803 799 794 786 779 776 772 766 762 758 755 750 747 744 740 736 731 727 723 719 716 712 710 710 709 709
826 824 822 821 822 822 822 822 819 816 812 807 803 798 792 788 783 776 769 764 758 753 748 745 740 735 731 728 723 718 715 711 707 704 701 699 699 698
824 824 823 824 823 823 821 820 818 815 812 805 800 795 791 785 780 775 771 762 756 749 743 738 732 728 724 721 717 712 708 703 699 696 693 691 688 688
825 824 823 825 823 822 820 818 816 812 808 804 797 793 787 782 774 769 765 760 752 745 738 732 726 722 718 713 707 702 698 694 689 687 685 683 681 679
826 825 821 824 824 822 819 817 814 810 805 801 795 789 784 776 771 765 758 754 746 739 733 728 722 716 710 703 697 693 689 685 681 678 674 672 671 670
826 825 823 824 824 822 819 815 812 808 804 799 793 787 780 774 769 763 756 747 742 735 727 723 716 709 702 696 689 685 682 678 673 669 666 662 660 659
827 825 823 822 821 819 817 814 811 808 804 799 793 787 781 776 769 763 755 747 733 731 723 712 712 701 696 689 683 677 673 669 665 661 656 653 649 647
827 823 821 821 820 817 814 811 808 805 803 799 793 788 781 776 768 760 754 748 738 729 723 706 705 694 690 683 675 667 663 659 655 651 647 642 638 636
827 821 819 819 818 815 811 808 805 803 800 796 791 785 780 774 768 760 752 743 735 728 721 705 698 689 681 673 664 658 655 653 648 644 639 634 630 627
825 821 818 817 816 812 809 806 803 800 796 791 786 781 776 769 764 757 749 742 730 723 715 704 695 684 673 662 656 654 650 647 640 632 629 624 621 618
822 819 816 814 812 810 807 804 801 797 792 785 781 775 770 764 759 755 749 742 733 720 711 706 697 690 663 656 653 651 642 638 632 624 620 616 612 609
819 816 813 812 810 807 805 803 800 794 789 784 778 773 767 761 756 751 746 741 732 722 711 707 698 690 682 657 647 643 638 628 623 615 608 604 600 600
817 814 811 809 807 803 801 800 796 790 787 782 776 770 764 758 751 744 739 734 727 718 708 702 692 685 675 658 642 633 629 622 615 604 598 593 589 588
815 811 809 806 803 801 798 796 791 789 785 780 774 768 763 755 748 740 732 726 716 708 702 695 687 679 671 657 640 631 619 611 606 597 592 587 583 579
813 809 806 804 800 798 796 793 791 788 783 778 772 766 760 752 744 737 729 720 710 694 692 687 680 672 662 652 640 624 618 610 600 592 585 578 573 571
810 807 805 802 800 797 794 792 789 784 780 775 770 764 757 750 742 735 728 718 708 696 682 672 669 664 654 645 631 618 607 599 591 583 577 566 561 559
808 806 804 801 798 796 794 790 786 782 778 773 768 762 756 749 742 733 726 718 707 695 684 673 658 645 637 629 625 610 602 592 583 575 569 560 547 545
807 805 803 800 798 796 792 788 784 781 776 772 766 761 755 748 740 731 723 715 704 693 682 673 661 651 633 618 606 608 598 585 575 566 560 552 543 533
805 803 801 799 796 793 789 786 782 778 774 769 763 758 752 745 737 729 720 712 702 689 676 666 658 649 640 625 606 584 586 575 565 552 544 539 532 526
803 801 799 796 793 790 787 783 780 775 771 766 761 755 749 742 734 726 717 709 700 688 674 659 649 642 629 615 598 578 566 564 556 543 532 528 522 515
800 798 795 793 790 787 783 780 776 772 767 762 757 752 746 739 731 722 714 705 694 685 672 657 642 631 619 608 588 570 551 538 530 519 511 510 510 502
797 794 792 789 786 783 780 776 772 768 764 759 753 748 742 735 727 719 710 702 691 679 669 652 637 627 614 603 587 567 548 531 517 499 486 485 491 496